Location: Navalmoral
(40.4603°N, 4.7686°W)
Time: 09:56:54
(UTC+00:00)

Terra - Pass Details

Date: 05 August 2024
Orbit: 690 x 696 km, 98.0° (Epoch: 19 September)

Event Time Altitude Azimuth Distance (km) Brightness Sun altitude
Exits shadow 20:12:45 - 101° (E) 2,250 3.8 -8.3°
Reaches altitude 10° 20:13:09 10° 97° (E) 2,155 3.8 -8.4°
Maximum altitude 20:15:47 15° 63° (ENE) 1,837 3.7 -8.8°
Drops below altitude 10° 20:18:26 10° 29° (NNE) 2,163 4.4 -9.2°
Sets 20:21:34 0° 7° (N) 3,085 5.5 -9.7°
